Year,Month,Day,Hour,Minute,Value (Times are PST for temperature in C)
2008,03,23,00,00,9.00
2008,03,23,00,01,9.00
2008,03,23,00,02,9.00
2008,03,23,00,03,9.00
2008,03,23,00,04,9.00
2008,03,23,00,05,9.00
2008,03,23,00,06,9.00
2008,03,23,00,07,9.00
2008,03,23,00,08,9.00
2008,03,23,00,09,9.00
2008,03,23,00,10,9.00
2008,03,23,00,11,8.90
2008,03,23,00,12,8.90
2008,03,23,00,13,8.90
2008,03,23,00,14,8.90
2008,03,23,00,15,8.90
2008,03,23,00,16,8.90
2008,03,23,00,17,8.90
2008,03,23,00,18,8.90
2008,03,23,00,19,8.80
2008,03,23,00,20,8.80
2008,03,23,00,21,8.80
2008,03,23,00,22,8.80
2008,03,23,00,23,8.80
2008,03,23,00,24,8.80
2008,03,23,00,25,8.80
2008,03,23,00,26,8.80
2008,03,23,00,27,8.80
2008,03,23,00,28,8.80
2008,03,23,00,29,8.70
2008,03,23,00,30,8.70
2008,03,23,00,31,8.70
2008,03,23,00,32,8.70
2008,03,23,00,33,8.70
2008,03,23,00,34,8.70
2008,03,23,00,35,8.70
2008,03,23,00,36,8.70
2008,03,23,00,37,8.60
2008,03,23,00,38,8.60
2008,03,23,00,39,8.60
2008,03,23,00,40,8.60
2008,03,23,00,41,8.60
2008,03,23,00,42,8.60
2008,03,23,00,43,8.60
2008,03,23,00,44,8.60
2008,03,23,00,45,8.50
2008,03,23,00,46,8.50
2008,03,23,00,47,8.50
2008,03,23,00,48,8.40
2008,03,23,00,49,8.40
2008,03,23,00,50,8.40
2008,03,23,00,51,8.30
2008,03,23,00,52,8.30
2008,03,23,00,53,8.30
2008,03,23,00,54,8.30
2008,03,23,00,55,8.30
2008,03,23,00,56,8.30
2008,03,23,00,57,8.30
2008,03,23,00,58,8.30
2008,03,23,00,59,8.30
2008,03,23,01,00,8.30
2008,03,23,01,01,8.30
2008,03,23,01,02,8.30
2008,03,23,01,03,8.30
2008,03,23,01,04,8.30
2008,03,23,01,05,8.20
2008,03,23,01,06,8.20
2008,03,23,01,07,8.20
2008,03,23,01,08,8.10
2008,03,23,01,09,8.10
2008,03,23,01,10,8.10
2008,03,23,01,11,8.10
2008,03,23,01,12,8.00
2008,03,23,01,13,8.00
2008,03,23,01,14,8.00
2008,03,23,01,15,7.90
2008,03,23,01,16,7.90
2008,03,23,01,17,7.90
2008,03,23,01,18,7.90
2008,03,23,01,19,7.90
2008,03,23,01,20,7.90
2008,03,23,01,21,7.80
2008,03,23,01,22,7.80
2008,03,23,01,23,7.80
2008,03,23,01,24,7.80
2008,03,23,01,25,7.80
2008,03,23,01,26,7.80
2008,03,23,01,27,7.80
2008,03,23,01,28,7.80
2008,03,23,01,29,7.80
2008,03,23,01,30,7.80
2008,03,23,01,31,7.80
2008,03,23,01,32,7.80
2008,03,23,01,33,7.80
2008,03,23,01,34,7.80
2008,03,23,01,35,7.90
2008,03,23,01,36,7.90
2008,03,23,01,37,7.90
2008,03,23,01,38,7.90
2008,03,23,01,39,7.80
2008,03,23,01,40,7.80
2008,03,23,01,41,7.80
2008,03,23,01,42,7.80
2008,03,23,01,43,7.80
2008,03,23,01,44,7.80
2008,03,23,01,45,7.70
2008,03,23,01,46,7.70
2008,03,23,01,47,7.70
2008,03,23,01,48,7.70
2008,03,23,01,49,7.60
2008,03,23,01,50,7.60
2008,03,23,01,51,7.60
2008,03,23,01,52,7.50
2008,03,23,01,53,7.50
2008,03,23,01,54,7.50
2008,03,23,01,55,7.40
2008,03,23,01,56,7.40
2008,03,23,01,57,7.40
2008,03,23,01,58,7.40
2008,03,23,01,59,7.30
2008,03,23,02,00,7.30
2008,03,23,02,01,7.30
2008,03,23,02,02,7.30
2008,03,23,02,03,7.30
2008,03,23,02,04,7.40
2008,03,23,02,05,7.40
2008,03,23,02,06,7.40
2008,03,23,02,07,7.40
2008,03,23,02,08,7.50
2008,03,23,02,09,7.50
2008,03,23,02,10,7.50
2008,03,23,02,11,7.60
2008,03,23,02,12,7.60
2008,03,23,02,13,7.60
2008,03,23,02,14,7.60
2008,03,23,02,15,7.60
2008,03,23,02,16,7.60
2008,03,23,02,17,7.60
2008,03,23,02,18,7.60
2008,03,23,02,19,7.60
2008,03,23,02,20,7.60
2008,03,23,02,21,7.60
2008,03,23,02,22,7.60
2008,03,23,02,23,7.60
2008,03,23,02,24,7.60
2008,03,23,02,25,7.60
2008,03,23,02,26,7.60
2008,03,23,02,27,7.60
2008,03,23,02,28,7.60
2008,03,23,02,29,7.60
2008,03,23,02,30,7.60
2008,03,23,02,31,7.60
2008,03,23,02,32,7.60
2008,03,23,02,33,7.60
2008,03,23,02,34,7.70
2008,03,23,02,35,7.70
2008,03,23,02,36,7.70
2008,03,23,02,37,7.60
2008,03,23,02,38,7.60
2008,03,23,02,39,7.60
2008,03,23,02,40,7.60
2008,03,23,02,41,7.60
2008,03,23,02,42,7.60
2008,03,23,02,43,7.60
2008,03,23,02,44,7.60
2008,03,23,02,45,7.60
2008,03,23,02,46,7.70
2008,03,23,02,47,7.70
2008,03,23,02,48,7.70
2008,03,23,02,49,7.70
2008,03,23,02,50,7.70
2008,03,23,02,51,7.70
2008,03,23,02,52,7.70
2008,03,23,02,53,7.70
2008,03,23,02,54,7.70
2008,03,23,02,55,7.70
2008,03,23,02,56,7.70
2008,03,23,02,57,7.70
2008,03,23,02,58,7.70
2008,03,23,02,59,7.70
2008,03,23,03,00,7.70
2008,03,23,03,01,7.70
2008,03,23,03,02,7.70
2008,03,23,03,03,7.70
2008,03,23,03,04,7.70
2008,03,23,03,05,7.70
2008,03,23,03,06,7.70
2008,03,23,03,07,7.70
2008,03,23,03,08,7.70
2008,03,23,03,09,7.70
2008,03,23,03,10,7.70
2008,03,23,03,11,7.70
2008,03,23,03,12,7.70
2008,03,23,03,13,7.70
2008,03,23,03,14,7.80
2008,03,23,03,15,7.70
2008,03,23,03,16,7.70
2008,03,23,03,17,7.80
2008,03,23,03,18,7.70
2008,03,23,03,19,7.70
2008,03,23,03,20,7.70
2008,03,23,03,21,7.70
2008,03,23,03,22,7.70
2008,03,23,03,23,7.70
2008,03,23,03,24,7.70
2008,03,23,03,25,7.70
2008,03,23,03,26,7.70
2008,03,23,03,27,7.70
2008,03,23,03,28,7.70
2008,03,23,03,29,7.70
2008,03,23,03,30,7.70
2008,03,23,03,31,7.70
2008,03,23,03,32,7.70
2008,03,23,03,33,7.70
2008,03,23,03,34,7.70
2008,03,23,03,35,7.70
2008,03,23,03,36,7.60
2008,03,23,03,37,7.60
2008,03,23,03,38,7.60
2008,03,23,03,39,7.60
2008,03,23,03,40,7.60
2008,03,23,03,41,7.50
2008,03,23,03,42,7.50
2008,03,23,03,43,7.50
2008,03,23,03,44,7.40
2008,03,23,03,45,7.40
2008,03,23,03,46,7.40
2008,03,23,03,47,7.40
2008,03,23,03,48,7.40
2008,03,23,03,49,7.40
2008,03,23,03,50,7.40
2008,03,23,03,51,7.40
2008,03,23,03,52,7.40
2008,03,23,03,53,7.40
2008,03,23,03,54,7.40
2008,03,23,03,55,7.40
2008,03,23,03,56,7.50
2008,03,23,03,57,7.50
2008,03,23,03,58,7.50
2008,03,23,03,59,7.50
2008,03,23,04,00,7.60
2008,03,23,04,01,7.60
2008,03,23,04,02,7.60
2008,03,23,04,03,7.60
2008,03,23,04,04,7.70
2008,03,23,04,05,7.70
2008,03,23,04,06,7.70
2008,03,23,04,07,7.70
2008,03,23,04,08,7.70
2008,03,23,04,09,7.70
2008,03,23,04,10,7.70
2008,03,23,04,11,7.70
2008,03,23,04,12,7.70
2008,03,23,04,13,7.70
2008,03,23,04,14,7.60
2008,03,23,04,15,7.60
2008,03,23,04,16,7.60
2008,03,23,04,17,7.60
2008,03,23,04,18,7.60
2008,03,23,04,19,7.60
2008,03,23,04,20,7.50
2008,03,23,04,21,7.60
2008,03,23,04,22,7.50
2008,03,23,04,23,7.60
2008,03,23,04,24,7.60
2008,03,23,04,25,7.60
2008,03,23,04,26,7.50
2008,03,23,04,27,7.50
2008,03,23,04,28,7.50
2008,03,23,04,29,7.50
2008,03,23,04,30,7.50
2008,03,23,04,31,7.50
2008,03,23,04,32,7.40
2008,03,23,04,33,7.40
2008,03,23,04,34,7.40
2008,03,23,04,35,7.40
2008,03,23,04,36,7.40
2008,03,23,04,37,7.40
2008,03,23,04,38,7.40
2008,03,23,04,39,7.40
2008,03,23,04,40,7.40
2008,03,23,04,41,7.40
2008,03,23,04,42,7.30
2008,03,23,04,43,7.30
2008,03,23,04,44,7.30
2008,03,23,04,45,7.30
2008,03,23,04,46,7.30
2008,03,23,04,47,7.30
2008,03,23,04,48,7.20
2008,03,23,04,49,7.20
2008,03,23,04,50,7.20
2008,03,23,04,51,7.20
2008,03,23,04,52,7.20
2008,03,23,04,53,7.20
2008,03,23,04,54,7.20
2008,03,23,04,55,7.20
2008,03,23,04,56,7.20
2008,03,23,04,57,7.20
2008,03,23,04,58,7.20
2008,03,23,04,59,7.20
2008,03,23,05,00,7.10
2008,03,23,05,01,7.10
2008,03,23,05,02,7.10
2008,03,23,05,03,7.10
2008,03,23,05,04,7.10
2008,03,23,05,05,7.10
2008,03,23,05,22,6.80
2008,03,23,05,32,6.60
2008,03,23,05,43,6.50
2008,03,23,05,56,6.40
2008,03,23,06,07,6.20
2008,03,23,06,17,6.20
2008,03,23,06,28,6.20
2008,03,23,06,38,6.10
2008,03,23,06,48,5.90
2008,03,23,06,59,5.70
2008,03,23,07,08,5.50
2008,03,23,07,18,5.40
2008,03,23,07,29,5.30
2008,03,23,07,40,5.30
2008,03,23,07,48,5.30
2008,03,23,07,57,5.30
2008,03,23,08,06,5.30
2008,03,23,08,14,5.40
2008,03,23,08,25,5.30
2008,03,23,08,36,5.10
2008,03,23,08,46,5.10
2008,03,23,08,56,4.90
2008,03,23,09,06,4.90
2008,03,23,09,14,5.00
2008,03,23,09,20,5.10
2008,03,23,09,21,5.10
2008,03,23,09,22,5.10
2008,03,23,09,23,5.10
2008,03,23,09,24,5.10
2008,03,23,09,25,5.10
2008,03,23,09,26,5.10
2008,03,23,09,27,5.10
2008,03,23,09,28,5.10
2008,03,23,09,29,5.10
2008,03,23,09,30,5.10
2008,03,23,09,31,5.10
2008,03,23,09,32,5.10
2008,03,23,09,33,5.20
2008,03,23,09,34,5.20
2008,03,23,09,35,5.20
2008,03,23,09,36,5.20
2008,03,23,09,37,5.20
2008,03,23,09,38,5.20
2008,03,23,09,39,5.20
2008,03,23,09,40,5.20
2008,03,23,09,41,5.20
2008,03,23,09,42,5.30
2008,03,23,09,43,5.30
2008,03,23,09,44,5.30
2008,03,23,09,45,5.30
2008,03,23,09,46,5.30
2008,03,23,09,47,5.30
2008,03,23,09,48,5.30
2008,03,23,09,49,5.30
2008,03,23,09,50,5.30
2008,03,23,09,51,5.30
2008,03,23,09,52,5.30
2008,03,23,09,53,5.30
2008,03,23,09,54,5.30
2008,03,23,09,55,5.30
2008,03,23,09,56,5.30
2008,03,23,09,57,5.30
2008,03,23,09,58,5.30
2008,03,23,09,59,5.30
2008,03,23,10,00,5.30
2008,03,23,10,01,5.30
2008,03,23,10,02,5.30
2008,03,23,10,03,5.30
2008,03,23,10,04,5.30
2008,03,23,10,05,5.30
2008,03,23,10,06,5.30
2008,03,23,10,07,5.30
2008,03,23,10,08,5.30
2008,03,23,10,09,5.30
2008,03,23,10,10,5.30
2008,03,23,10,11,5.40
2008,03,23,10,12,5.40
2008,03,23,10,13,5.40
2008,03,23,10,14,5.40
2008,03,23,10,15,5.40
2008,03,23,10,16,5.40
2008,03,23,10,17,5.40
2008,03,23,10,18,5.40
2008,03,23,10,19,5.40
2008,03,23,10,20,5.50
2008,03,23,10,21,5.50
2008,03,23,10,22,5.50
2008,03,23,10,23,5.60
2008,03,23,10,24,5.60
2008,03,23,10,25,5.60
2008,03,23,10,26,5.60
2008,03,23,10,27,5.70
2008,03,23,10,28,5.70
2008,03,23,10,29,5.70
2008,03,23,10,30,5.70
2008,03,23,10,31,5.70
2008,03,23,10,32,5.80
2008,03,23,10,33,5.80
2008,03,23,10,34,5.80
2008,03,23,10,35,5.80
2008,03,23,10,36,5.90
2008,03,23,10,37,5.90
2008,03,23,10,38,5.90
2008,03,23,10,39,5.90
2008,03,23,10,40,5.90
2008,03,23,10,41,6.00
2008,03,23,10,42,6.00
2008,03,23,10,43,6.00
2008,03,23,10,44,6.10
2008,03,23,10,45,6.10
2008,03,23,10,46,6.10
2008,03,23,10,47,6.10
2008,03,23,10,48,6.10
2008,03,23,10,49,6.10
2008,03,23,10,50,6.10
2008,03,23,10,51,6.10
2008,03,23,10,52,6.20
2008,03,23,10,53,6.20
2008,03,23,10,54,6.20
2008,03,23,10,55,6.20
2008,03,23,10,56,6.20
2008,03,23,10,57,6.20
2008,03,23,10,58,6.20
2008,03,23,10,59,6.20
2008,03,23,11,00,6.20
2008,03,23,11,01,6.20
2008,03,23,11,02,6.20
2008,03,23,11,03,6.20
2008,03,23,11,04,6.20
2008,03,23,11,05,6.20
2008,03,23,11,06,6.20
2008,03,23,11,07,6.20
2008,03,23,11,08,6.20
2008,03,23,11,09,6.20
2008,03,23,11,10,6.20
2008,03,23,11,11,6.20
2008,03,23,11,12,6.20
2008,03,23,11,13,6.20
2008,03,23,11,14,6.30
2008,03,23,11,15,6.30
2008,03,23,11,16,6.30
2008,03,23,11,17,6.40
2008,03,23,11,18,6.40
2008,03,23,11,19,6.40
2008,03,23,11,20,6.40
2008,03,23,11,21,6.40
2008,03,23,11,22,6.40
2008,03,23,11,23,6.40
2008,03,23,11,24,6.40
2008,03,23,11,25,6.40
2008,03,23,11,26,6.40
2008,03,23,11,27,6.40
2008,03,23,11,28,6.40
2008,03,23,11,29,6.40
2008,03,23,11,30,6.40
2008,03,23,11,31,6.40
2008,03,23,11,32,6.40
2008,03,23,11,33,6.40
2008,03,23,11,34,6.40
2008,03,23,11,35,6.40
2008,03,23,11,36,6.40
2008,03,23,11,37,6.40
2008,03,23,11,38,6.40
2008,03,23,11,39,6.40
2008,03,23,11,40,6.40
2008,03,23,11,41,6.40
2008,03,23,11,42,6.40
2008,03,23,11,43,6.50
2008,03,23,11,44,6.50
2008,03,23,11,45,6.50
2008,03,23,11,46,6.60
2008,03,23,11,47,6.60
2008,03,23,11,48,6.60
2008,03,23,11,49,6.60
2008,03,23,11,50,6.60
2008,03,23,11,51,6.60
2008,03,23,11,52,6.60
2008,03,23,11,53,6.60
2008,03,23,11,54,6.60
2008,03,23,11,55,6.60
2008,03,23,11,56,6.60
2008,03,23,11,57,6.60
2008,03,23,11,58,6.60
2008,03,23,11,59,6.60
2008,03,23,12,00,6.60
2008,03,23,12,01,6.60
2008,03,23,12,02,6.60
2008,03,23,12,03,6.60
2008,03,23,12,04,6.50
2008,03,23,12,05,6.50
2008,03,23,12,06,6.60
2008,03,23,12,07,6.60
2008,03,23,12,08,6.60
2008,03,23,12,09,6.70
2008,03,23,12,10,6.70
2008,03,23,12,11,6.70
2008,03,23,12,12,6.70
2008,03,23,12,13,6.70
2008,03,23,12,14,6.70
2008,03,23,12,15,6.70
2008,03,23,12,16,6.70
2008,03,23,12,17,6.70
2008,03,23,12,18,6.60
2008,03,23,12,19,6.60
2008,03,23,12,20,6.60
2008,03,23,12,21,6.70
2008,03,23,12,22,6.70
2008,03,23,12,23,6.70
2008,03,23,12,24,6.70
2008,03,23,12,25,6.70
2008,03,23,12,26,6.70
2008,03,23,12,27,6.70
2008,03,23,12,28,6.70
2008,03,23,12,29,6.70
2008,03,23,12,30,6.60
2008,03,23,12,31,6.60
2008,03,23,12,32,6.60
2008,03,23,12,33,6.60
2008,03,23,12,34,6.60
2008,03,23,12,35,6.60
2008,03,23,12,36,6.60
2008,03,23,12,37,6.60
2008,03,23,12,38,6.60
2008,03,23,12,39,6.50
2008,03,23,12,40,6.50
2008,03,23,12,41,6.50
2008,03,23,12,42,6.50
2008,03,23,12,43,6.50
2008,03,23,12,44,6.60
2008,03,23,12,45,6.60
2008,03,23,12,46,6.60
2008,03,23,12,47,6.70
2008,03,23,12,48,6.70
2008,03,23,12,49,6.70
2008,03,23,12,50,6.70
2008,03,23,12,51,6.70
2008,03,23,12,52,6.70
2008,03,23,12,53,6.70
2008,03,23,12,54,6.70
2008,03,23,12,55,6.70
2008,03,23,12,56,6.70
2008,03,23,12,57,6.70
2008,03,23,12,58,6.70
2008,03,23,12,59,6.70
2008,03,23,13,00,6.80
2008,03,23,13,01,6.80
2008,03,23,13,02,6.80
2008,03,23,13,03,6.80
2008,03,23,13,04,6.80
2008,03,23,13,05,6.80
2008,03,23,13,06,6.80
2008,03,23,13,07,6.80
2008,03,23,13,08,6.80
2008,03,23,13,09,6.80
2008,03,23,13,10,6.90
2008,03,23,13,11,6.90
2008,03,23,13,12,6.90
2008,03,23,13,13,6.90
2008,03,23,13,14,6.90
2008,03,23,13,15,6.90
2008,03,23,13,16,7.00
2008,03,23,13,17,7.00
2008,03,23,13,18,7.10
2008,03,23,13,19,7.10
2008,03,23,13,20,7.10
2008,03,23,13,21,7.20
2008,03,23,13,22,7.20
2008,03,23,13,23,7.20
2008,03,23,13,24,7.20
2008,03,23,13,25,7.20
2008,03,23,13,26,7.20
2008,03,23,13,27,7.20
2008,03,23,13,28,7.20
2008,03,23,13,29,7.20
2008,03,23,13,30,7.20
2008,03,23,13,31,7.20
2008,03,23,13,32,7.20
2008,03,23,13,33,7.20
2008,03,23,13,34,7.20
2008,03,23,13,35,7.20
2008,03,23,13,36,7.20
2008,03,23,13,37,7.20
2008,03,23,13,38,7.20
2008,03,23,13,39,7.20
2008,03,23,13,40,7.20
2008,03,23,13,41,7.20
2008,03,23,13,42,7.20
2008,03,23,13,43,7.20
2008,03,23,13,44,7.10
2008,03,23,13,45,7.10
2008,03,23,13,46,7.10
2008,03,23,13,47,7.10
2008,03,23,13,48,7.10
2008,03,23,13,49,7.10
2008,03,23,13,50,7.10
2008,03,23,13,51,7.10
2008,03,23,13,52,7.10
2008,03,23,13,53,7.10
2008,03,23,13,54,7.10
2008,03,23,13,55,7.10
2008,03,23,13,56,7.10
2008,03,23,13,57,7.10
2008,03,23,13,58,7.10
2008,03,23,13,59,7.10
2008,03,23,14,00,7.20
2008,03,23,14,01,7.20
2008,03,23,14,02,7.20
2008,03,23,14,03,7.20
2008,03,23,14,04,7.10
2008,03,23,14,05,7.10
2008,03,23,14,06,7.10
2008,03,23,14,07,7.00
2008,03,23,14,08,7.00
2008,03,23,14,09,7.00
2008,03,23,14,10,7.00
2008,03,23,14,11,7.00
2008,03,23,14,12,7.10
2008,03,23,14,13,7.10
2008,03,23,14,14,7.10
2008,03,23,14,15,7.20
2008,03,23,14,16,7.20
2008,03,23,14,17,7.20
2008,03,23,14,18,7.10
2008,03,23,14,19,7.10
2008,03,23,14,20,7.10
2008,03,23,14,21,7.00
2008,03,23,14,22,7.00
2008,03,23,14,23,7.00
2008,03,23,14,24,7.00
2008,03,23,14,25,7.00
2008,03,23,14,26,6.90
2008,03,23,14,27,6.90
2008,03,23,14,28,6.90
2008,03,23,14,29,6.90
2008,03,23,14,30,6.90
2008,03,23,14,31,6.90
2008,03,23,14,32,6.90
2008,03,23,14,33,6.90
2008,03,23,14,34,7.00
2008,03,23,14,35,7.00
2008,03,23,14,36,7.00
2008,03,23,14,37,7.00
2008,03,23,14,38,7.10
2008,03,23,14,39,7.10
2008,03,23,14,40,7.10
2008,03,23,14,41,7.10
2008,03,23,14,42,7.10
2008,03,23,14,43,7.10
2008,03,23,14,44,7.10
2008,03,23,14,45,7.10
2008,03,23,14,46,7.10
2008,03,23,14,47,7.10
2008,03,23,14,48,7.10
2008,03,23,14,49,7.10
2008,03,23,14,50,7.00
2008,03,23,14,51,7.00
2008,03,23,14,52,7.00
2008,03,23,14,53,7.00
2008,03,23,14,54,7.00
2008,03,23,14,55,7.00
2008,03,23,14,56,7.00
2008,03,23,14,57,7.00
2008,03,23,14,58,7.00
2008,03,23,14,59,7.00
2008,03,23,15,00,7.00
2008,03,23,15,01,7.00
2008,03,23,15,02,6.90
2008,03,23,15,03,6.90
2008,03,23,15,04,7.00
2008,03,23,15,05,7.00
2008,03,23,15,06,7.00
2008,03,23,15,07,7.00
2008,03,23,15,08,7.10
2008,03,23,15,09,7.10
2008,03,23,15,10,7.10
2008,03,23,15,11,7.10
2008,03,23,15,12,7.10
2008,03,23,15,13,7.10
2008,03,23,15,14,7.00
2008,03,23,15,15,7.00
2008,03,23,15,16,7.00
2008,03,23,15,17,7.00
2008,03,23,15,18,7.00
2008,03,23,15,19,7.00
2008,03,23,15,20,7.00
2008,03,23,15,21,7.00
2008,03,23,15,22,7.00
2008,03,23,15,23,7.00
2008,03,23,15,24,7.00
2008,03,23,15,25,7.00
2008,03,23,15,26,6.90
2008,03,23,15,27,6.90
2008,03,23,15,28,6.90
2008,03,23,15,29,6.90
2008,03,23,15,30,6.90
2008,03,23,15,31,6.80
2008,03,23,15,32,6.80
2008,03,23,15,33,6.80
2008,03,23,15,34,6.80
2008,03,23,15,35,6.80
2008,03,23,15,36,6.80
2008,03,23,15,37,6.80
2008,03,23,15,38,6.70
2008,03,23,15,39,6.70
2008,03,23,15,40,6.70
2008,03,23,15,41,6.70
2008,03,23,15,42,6.70
2008,03,23,15,43,6.70
2008,03,23,15,44,6.60
2008,03,23,15,45,6.60
2008,03,23,15,46,6.60
2008,03,23,15,47,6.60
2008,03,23,15,48,6.60
2008,03,23,15,49,6.60
2008,03,23,15,50,6.60
2008,03,23,15,51,6.60
2008,03,23,15,52,6.60
2008,03,23,15,53,6.50
2008,03,23,15,54,6.50
2008,03,23,15,55,6.50
2008,03,23,15,56,6.40
2008,03,23,15,57,6.40
2008,03,23,15,58,6.40
2008,03,23,15,59,6.40
2008,03,23,16,00,6.40
2008,03,23,16,01,6.30
2008,03,23,16,02,6.30
2008,03,23,16,03,6.30
2008,03,23,16,04,6.30
2008,03,23,16,05,6.30
2008,03,23,16,06,6.30
2008,03,23,16,07,6.30
2008,03,23,16,08,6.30
2008,03,23,16,09,6.30
2008,03,23,16,10,6.20
2008,03,23,16,11,6.30
2008,03,23,16,12,6.20
2008,03,23,16,13,6.20
2008,03,23,16,14,6.20
2008,03,23,16,15,6.30
2008,03,23,16,16,6.30
2008,03,23,16,17,6.30
2008,03,23,16,18,6.30
2008,03,23,16,19,6.30
2008,03,23,16,20,6.30
2008,03,23,16,21,6.30
2008,03,23,16,22,6.30
2008,03,23,16,23,6.30
2008,03,23,16,24,6.30
2008,03,23,16,25,6.30
2008,03,23,16,26,6.30
2008,03,23,16,27,6.30
2008,03,23,16,28,6.30
2008,03,23,16,29,6.30
2008,03,23,16,30,6.20
2008,03,23,16,31,6.30
2008,03,23,16,32,6.30
2008,03,23,16,33,6.30
2008,03,23,16,34,6.40
2008,03,23,16,35,6.60
2008,03,23,16,36,6.70
2008,03,23,16,37,6.80
2008,03,23,16,38,6.80
2008,03,23,16,39,6.90
2008,03,23,16,40,7.00
2008,03,23,16,41,7.00
2008,03,23,16,42,7.10
2008,03,23,16,43,7.20
2008,03,23,16,44,7.20
2008,03,23,16,45,7.20
2008,03,23,16,46,7.20
2008,03,23,16,47,7.10
2008,03,23,16,48,7.00
2008,03,23,16,49,7.00
2008,03,23,16,50,6.90
2008,03,23,16,51,6.90
2008,03,23,16,52,6.80
2008,03,23,16,53,6.80
2008,03,23,16,54,6.80
2008,03,23,16,55,6.80
2008,03,23,16,56,6.80
2008,03,23,16,57,6.80
2008,03,23,16,58,6.80
2008,03,23,16,59,6.80
2008,03,23,17,00,6.80
2008,03,23,17,01,6.80
2008,03,23,17,02,6.80
2008,03,23,17,03,6.80
2008,03,23,17,04,6.80
2008,03,23,17,05,6.70
2008,03,23,17,06,6.60
2008,03,23,17,07,6.40
2008,03,23,17,08,6.20
2008,03,23,17,09,5.90
2008,03,23,17,10,5.60
2008,03,23,17,11,5.40
2008,03,23,17,12,5.20
2008,03,23,17,13,5.00
2008,03,23,17,14,4.80
2008,03,23,17,15,4.80
2008,03,23,17,16,4.70
2008,03,23,17,17,4.70
2008,03,23,17,18,4.80
2008,03,23,17,19,4.80
2008,03,23,17,20,4.80
2008,03,23,17,21,4.80
2008,03,23,17,22,4.80
2008,03,23,17,23,4.90
2008,03,23,17,24,4.90
2008,03,23,17,25,4.90
2008,03,23,17,26,4.90
2008,03,23,17,27,4.90
2008,03,23,17,28,5.00
2008,03,23,17,29,5.10
2008,03,23,17,30,5.10
2008,03,23,17,31,5.10
2008,03,23,17,32,5.20
2008,03,23,17,33,5.20
2008,03,23,17,34,5.20
2008,03,23,17,35,5.20
2008,03,23,17,36,5.30
2008,03,23,17,37,5.30
2008,03,23,17,38,5.30
2008,03,23,17,39,5.30
2008,03,23,17,40,5.30
2008,03,23,17,41,5.30
2008,03,23,17,42,5.30
2008,03,23,17,43,5.30
2008,03,23,17,44,5.30
2008,03,23,17,45,5.20
2008,03,23,17,46,5.20
2008,03,23,17,47,5.10
2008,03,23,17,48,5.10
2008,03,23,17,49,5.00
2008,03,23,17,50,5.00
2008,03,23,17,51,4.90
2008,03,23,17,52,4.90
2008,03,23,17,53,4.90
2008,03,23,17,54,4.90
2008,03,23,17,55,5.00
2008,03,23,17,56,5.00
2008,03,23,17,57,5.00
2008,03,23,17,58,5.10
2008,03,23,17,59,5.10
2008,03,23,18,00,5.10
2008,03,23,18,01,5.10
2008,03,23,18,02,5.20
2008,03,23,18,03,5.20
2008,03,23,18,04,5.20
2008,03,23,18,05,5.30
2008,03,23,18,06,5.30
2008,03,23,18,07,5.30
2008,03,23,18,08,5.40
2008,03,23,18,09,5.40
2008,03,23,18,10,5.40
2008,03,23,18,11,5.40
2008,03,23,18,12,5.50
2008,03,23,18,13,5.50
2008,03,23,18,14,5.50
2008,03,23,18,15,5.60
2008,03,23,18,16,5.60
2008,03,23,18,17,5.60
2008,03,23,18,18,5.70
2008,03,23,18,19,5.70
2008,03,23,18,20,5.70
2008,03,23,18,21,5.70
2008,03,23,18,22,5.80
2008,03,23,18,23,5.80
2008,03,23,18,24,5.80
2008,03,23,18,25,5.80
2008,03,23,18,26,5.80
2008,03,23,18,27,5.90
2008,03,23,18,28,5.90
2008,03,23,18,29,5.90
2008,03,23,18,30,5.90
2008,03,23,18,31,5.90
2008,03,23,18,32,5.90
2008,03,23,18,33,5.90
2008,03,23,18,34,5.90
2008,03,23,18,35,5.90
2008,03,23,18,36,5.90
2008,03,23,18,37,5.90
2008,03,23,18,38,5.90
2008,03,23,18,39,6.00
2008,03,23,18,40,6.00
2008,03,23,18,41,6.00
2008,03,23,18,42,5.90
2008,03,23,18,43,5.90
2008,03,23,18,44,5.90
2008,03,23,18,45,5.80
2008,03,23,18,46,5.70
2008,03,23,18,47,5.60
2008,03,23,18,48,5.50
2008,03,23,18,49,5.40
2008,03,23,18,50,5.30
2008,03,23,18,51,5.20
2008,03,23,18,52,5.10
2008,03,23,18,53,5.10
2008,03,23,18,54,5.10
2008,03,23,18,55,5.00
2008,03,23,18,56,5.00
2008,03,23,18,57,4.90
2008,03,23,18,58,4.90
2008,03,23,18,59,4.90
2008,03,23,19,00,4.90
2008,03,23,19,01,4.80
2008,03,23,19,02,4.80
2008,03,23,19,03,4.80
2008,03,23,19,04,4.80
2008,03,23,19,05,4.80
2008,03,23,19,06,4.80
2008,03,23,19,07,4.80
2008,03,23,19,08,4.80
2008,03,23,19,09,4.90
2008,03,23,19,10,4.90
2008,03,23,19,11,4.90
2008,03,23,19,12,5.00
2008,03,23,19,13,5.00
2008,03,23,19,14,5.10
2008,03,23,19,15,5.10
2008,03,23,19,16,5.10
2008,03,23,19,17,5.20
2008,03,23,19,18,5.20
2008,03,23,19,19,5.20
2008,03,23,19,20,5.20
2008,03,23,19,21,5.20
2008,03,23,19,22,5.30
2008,03,23,19,23,5.20
2008,03,23,19,24,5.30
2008,03,23,19,25,5.30
2008,03,23,19,26,5.30
2008,03,23,19,27,5.30
2008,03,23,19,28,5.30
2008,03,23,19,29,5.30
2008,03,23,19,30,5.30
2008,03,23,19,31,5.30
2008,03,23,19,32,5.30
2008,03,23,19,33,5.30
2008,03,23,19,34,5.30
2008,03,23,19,35,5.30
2008,03,23,19,36,5.30
2008,03,23,19,37,5.30
2008,03,23,19,38,5.30
2008,03,23,19,39,5.30
2008,03,23,19,40,5.30
2008,03,23,19,41,5.40
2008,03,23,19,42,5.40
2008,03,23,19,43,5.40
2008,03,23,19,44,5.40
2008,03,23,19,45,5.40
2008,03,23,19,46,5.40
2008,03,23,19,47,5.40
2008,03,23,19,48,5.40
2008,03,23,19,49,5.40
2008,03,23,19,50,5.40
2008,03,23,19,51,5.40
2008,03,23,19,52,5.40
2008,03,23,19,53,5.40
2008,03,23,19,54,5.40
2008,03,23,19,55,5.30
2008,03,23,19,56,5.30
2008,03,23,19,57,5.30
2008,03,23,19,58,5.30
2008,03,23,19,59,5.10
2008,03,23,20,00,5.00
2008,03,23,20,01,4.90
2008,03,23,20,02,4.70
2008,03,23,20,03,4.50
2008,03,23,20,04,4.30
2008,03,23,20,05,4.00
2008,03,23,20,06,3.70
2008,03,23,20,07,3.60
2008,03,23,20,08,3.40
2008,03,23,20,09,3.30
2008,03,23,20,10,3.20
2008,03,23,20,11,3.10
2008,03,23,20,12,3.10
2008,03,23,20,13,3.10
2008,03,23,20,14,3.10
2008,03,23,20,15,3.10
2008,03,23,20,16,3.10
2008,03,23,20,17,3.10
2008,03,23,20,18,3.10
2008,03,23,20,19,3.10
2008,03,23,20,20,3.10
2008,03,23,20,21,3.20
2008,03,23,20,22,3.20
2008,03,23,20,23,3.20
2008,03,23,20,24,3.20
2008,03,23,20,25,3.20
2008,03,23,20,26,3.30
2008,03,23,20,27,3.30
2008,03,23,20,28,3.30
2008,03,23,20,29,3.40
2008,03,23,20,30,3.40
2008,03,23,20,31,3.40
2008,03,23,20,32,3.40
2008,03,23,20,33,3.50
2008,03,23,20,34,3.50
2008,03,23,20,35,3.50
2008,03,23,20,36,3.60
2008,03,23,20,37,3.60
2008,03,23,20,38,3.70
2008,03,23,20,39,3.70
2008,03,23,20,40,3.70
2008,03,23,20,41,3.80
2008,03,23,20,42,3.80
2008,03,23,20,43,3.80
2008,03,23,20,44,3.80
2008,03,23,20,45,3.90
2008,03,23,20,46,3.90
2008,03,23,20,47,3.90
2008,03,23,20,48,3.90
2008,03,23,20,49,3.90
2008,03,23,20,50,4.00
2008,03,23,20,51,4.00
2008,03,23,20,52,4.10
2008,03,23,20,53,4.10
2008,03,23,20,54,4.10
2008,03,23,20,55,4.10
2008,03,23,20,56,4.10
2008,03,23,20,57,4.20
2008,03,23,20,58,4.20
2008,03,23,20,59,4.20
2008,03,23,21,00,4.20
2008,03,23,21,01,4.30
2008,03,23,21,02,4.30
2008,03,23,21,03,4.30
2008,03,23,21,04,4.30
2008,03,23,21,05,4.30
2008,03,23,21,06,4.40
2008,03,23,21,07,4.40
2008,03,23,21,08,4.40
2008,03,23,21,09,4.40
2008,03,23,21,10,4.50
2008,03,23,21,11,4.50
2008,03,23,21,12,4.50
2008,03,23,21,13,4.50
2008,03,23,21,14,4.50
2008,03,23,21,15,4.50
2008,03,23,21,16,4.60
2008,03,23,21,17,4.60
2008,03,23,21,18,4.60
2008,03,23,21,19,4.60
2008,03,23,21,20,4.60
2008,03,23,21,21,4.60
2008,03,23,21,22,4.60
2008,03,23,21,23,4.60
2008,03,23,21,24,4.50
2008,03,23,21,25,4.50
2008,03,23,21,26,4.50
2008,03,23,21,27,4.50
2008,03,23,21,28,4.50
2008,03,23,21,29,4.50
2008,03,23,21,30,4.50
2008,03,23,21,31,4.50
2008,03,23,21,32,4.50
2008,03,23,21,33,4.50
2008,03,23,21,34,4.50
2008,03,23,21,35,4.50
2008,03,23,21,36,4.50
2008,03,23,21,37,4.50
2008,03,23,21,38,4.60
2008,03,23,21,39,4.50
2008,03,23,21,40,4.60
2008,03,23,21,41,4.60
2008,03,23,21,42,4.60
2008,03,23,21,43,4.60
2008,03,23,21,44,4.60
2008,03,23,21,45,4.60
2008,03,23,21,46,4.60
2008,03,23,21,47,4.60
2008,03,23,21,48,4.60
2008,03,23,21,49,4.60
2008,03,23,21,50,4.60
2008,03,23,21,51,4.60
2008,03,23,21,52,4.60
2008,03,23,21,53,4.60
2008,03,23,21,54,4.60
2008,03,23,21,55,4.50
2008,03,23,21,56,4.50